Details From LEXJ - Santander
To LECO - A Coruna
Flight Number -
Tags generated
Created
Modified
Stats Distance 199 nm / 369 km
Max Altitude 22,400 ft / 6,828 m
Waypoints 3
Social Downloads 1
Likes 0
Share VATSIM

Download

Looking for another format? Having issues loading an existing format? Contact us
Advertisement - Login to hide

Notes

Basic altitude profile: - Ascent Rate: 2500ft/min - Ascent Speed: 250kts - Cruise Altitude: 35000ft - Cruise Speed: 420kts - Descent Rate: 1500ft/min - Descent Speed: 250kts

Route

LEXJ RATPO LECO

ID Type Via Altitude Latitude Longitude Leg Dist Tot Dist Heading (true) Name
O LEXJ APT - 0 ft / 0 m 43.42719˚ -3.82047˚ - 0 nm - Santander
RATPO FIX - 22,400 ft / 6,828 m 43.31711˚ -5.98170˚ 94 nm 94 nm 267° / 265° -
O LECO APT - 0 ft / 0 m 43.30226˚ -8.37709˚ 104 nm 199 nm 270° / 269° A Coruna

Altitude Profile

Advertisement - Login to hide

Weather


0- 5 10 15 20 25 30 35+ Temperature / ° C

Clouds and Precipitation
Forecast for 2018-05-24 12:00 UTC. Updated an hour ago

Ground ~20,000 ft ~40,000 ft Winds

LEXJ

Details ICAO LEXJ (SDR)
Name Santander
Region Spain
Timezone Europe/Madrid (UTC+2.0)
Stats Elevation 16 ft / 5 m (AMSL)
Location 43.427188° -3.820470°
Runways 1
Magnetic Variation 0.857° W

METAR

LEXJ 241030Z 05006KT 010V090 9000 BKN020 20/16 Q1016

Decode

TAF

TAF LEXJ 240800Z 2409/2509 VRB06KT 9000 FEW020 TX21/2414Z TN16/2505Z TEMPO 2411/2419 02010KT PROB40 TEMPO 2413/2421 SHRA SCT035TCU TEMPO 2421/2509 SHRA SCT030TCU PROB40 TEMPO 2413/2422 3000 TSRA BKN010 SCT025CB TEMPO 2422/2508 3000 BR PROB30 TEMPO 2504/2507 1400 BCFG BKN005

Decode

Departure Runways

ID Width Length Bearing (true) Bearing (mag) Surface Threshold Offset Overrun Length
11 148 ft / 45 m 7,597 ft / 2,316 m 110.20° 111.06° Asphalt 0 ft / 0 m 98 ft / 30 m
29 148 ft / 45 m 7,597 ft / 2,316 m 290.22° 291.08° Asphalt 0 ft / 0 m 0 ft / 0 m

LECO

Details ICAO LECO (LCG)
Name A Coruna
Region Spain
Timezone Europe/Madrid (UTC+2.0)
Stats Elevation 323 ft / 98 m (AMSL)
Location 43.302264° -8.377086°
Runways 1
Magnetic Variation 2.332° W

METAR

LECO 241030Z 36004KT 300V080 CAVOK 21/15 Q1015 NOSIG

Decode

TAF

TAF LECO 240800Z 2409/2509 04008KT 9999 FEW040 TX24/2414Z TN13/2506Z PROB40 TEMPO 2412/2509 SHRA SCT035TCU PROB30 TEMPO 2415/2418 TSRA SCT030CB TEMPO 2411/2419 34012G22KT PROB30 TEMPO 2500/2506 3000 BR

Decode

Destination Runways

ID Width Length Bearing (true) Bearing (mag) Surface Threshold Offset Overrun Length
04 148 ft / 45 m 6,371 ft / 1,942 m 30.94° 33.27° Asphalt 0 ft / 0 m 194 ft / 59 m
22 148 ft / 45 m 6,371 ft / 1,942 m 210.94° 213.27° Asphalt 0 ft / 0 m 203 ft / 62 m

Approach Navaids

Runway Type Ident Frequency Range Bearing (true) Bearing (mag) Slope Elevation
22 Localiser LCO 109.90 MHz 18 nm / 33 km 210.89° 213.22° - 329 ft / 100 m (AMSL)
22 Glidescope LCO 109.90 MHz 10 nm / 19 km 210.94° 213.27° 3.00° 323 ft / 98 m (AMSL)
22 DME LCO 109.90 MHz 18 nm / 33 km - - - 293 ft / 89 m (AMSL)

Popular Alternatives